Location: Dayton
(39.7590°N, 84.1920°W)
Time: 02:49:54
(UTC-04:00)

Daily predictions for brighter satellites

Satellite Brightness Start Highest point End
(mag) Time Altitude Azimuth Time Altitude Azimuth Time Altitude Azimuth
Cosmos 1932 4.3 00:06:32 65° SSE 00:07:04 68° ESE 00:13:15 10° NE
Cosmos 2369 Rocket 2.8 00:07:07 10° NW 00:12:27 43° WSW 00:13:08 41° SW
Cosmos 1953 3.1 00:10:30 10° N 00:13:33 51° NNW 00:13:33 51° NNW
Spot 4 4.3 00:14:25 49° WSW 00:14:30 49° W 00:19:08 10° NNW
Cosmos 1570 Rocket 4.3 00:12:07 10° N 00:17:24 57° ENE 00:17:35 57° ENE
Cosmos 1805 4.2 00:14:44 10° N 00:17:37 47° NNW 00:17:37 47° NNW
Cosmos 2221 4.4 00:15:52 10° NNE 00:18:26 21° ENE 00:18:26 21° ENE
Cosmos 1850 Rocket 4.3 00:22:19 55° ENE 00:22:19 55° ENE 00:26:47 10° NNE
Cosmos-2242 3.7 00:18:09 10° NNW 00:21:58 49° WNW 00:21:58 49° WNW
Cosmos 1607 4.2 00:23:14 49° E 00:23:14 49° E 00:28:40 10° NE
Lacrosse 4 Rocket 3.1 00:31:19 26° WNW 00:32:00 28° NW 00:35:34 10° N
COSMOS 2406 3.1 00:32:43 84° ESE 00:32:44 84° ESE 00:38:30 10° NNE
Terra 3.4 00:35:13 24° W 00:35:20 24° W 00:39:12 10° NW
ALOS 2 3.7 00:42:00 38° NE 00:42:00 38° NE 00:45:19 10° N
Cosmos 1140 Rocket 3.8 00:49:34 57° W 00:49:46 57° WNW 00:54:58 10° N
Cosmos 1092 Rocket 4.1 00:52:56 60° WSW 00:53:48 66° W 01:00:06 10° N
Cosmos 1707 4.4 00:57:51 33° N 00:57:51 33° N 01:00:06 10° N
Cosmos 2082 Rocket 4.3 01:01:19 14° E 01:01:19 14° E 01:03:04 10° ENE
CZ-4C R/B 3.0 01:07:58 38° ENE 01:07:58 38° ENE 01:12:04 10° NE
Meteor 1-24 Rocket 3.9 01:08:02 66° E 01:08:02 66° E 01:13:50 10° NNE
Cosmos 1655 Rocket 3.8 01:09:33 82° SSE 01:09:50 88° E 01:16:09 10° N
S3M 4.2 01:05:27 10° N 01:11:37 58° E 01:11:58 57° E
ATLAS 3B R/B 4.4 01:08:08 10° WSW 01:14:50 32° NW 01:21:24 10° NNE
NOSS 3-2 (A) 3.5 01:16:20 63° E 01:16:20 63° E 01:22:23 10° NE
Meteor 2-5 Rocket 4.0 01:16:45 59° W 01:17:00 60° WNW 01:22:46 10° N
CZ-4B R/B 3.8 01:24:16 24° NNW 01:24:16 24° NNW 01:25:54 10° NNW
Cosmos 1943 Rocket 3.6 01:19:58 10° NW 01:23:46 26° W 01:23:46 26° W
Cosmos 1428 Rocket 4.3 01:28:41 81° ESE 01:28:44 81° E 01:34:56 10° N
Meteor 2-1 Rocket 4.3 01:30:22 10° NNW 01:36:03 71° WNW 01:36:03 71° WNW
ISS 0.1 01:36:34 10° NW 01:37:57 12° N 01:39:21 10° NNE
Cosmos 2344 3.8 01:38:02 49° SE 01:38:41 50° ESE 01:46:44 10° NE
CZ-2C R/B 4.1 01:39:23 37° E 01:40:04 38° ENE 01:45:14 10° N
Helios 1A Rocket 4.3 01:36:36 10° N 01:39:12 36° NNW 01:39:12 36° NNW
USA 215 4.3 01:43:17 10° ENE 01:47:54 30° ESE 01:47:54 30° ESE
Cosmos 2228 Rocket 4.1 01:47:59 10° N 01:51:02 44° NNW 01:51:02 44° NNW
Meteor 2-20 4.4 01:52:46 73° ESE 01:52:56 73° E 01:59:06 10° NNE
CZ-2C R/B 2.7 01:48:08 10° NNE 01:53:23 74° ENE 01:53:23 74° ENE
Cosmos 2221 4.4 01:53:08 10° NNW 01:55:19 22° NW 01:55:19 22° NW
Cosmos 2369 3.7 01:53:43 10° NNW 01:59:23 72° ENE 01:59:26 72° ENE
Cosmos 1515 Rocket 4.5 01:55:26 10° N 01:58:44 47° NNE 01:58:44 47° NNE
In-Cosmos 22 4.1 02:02:13 78° NE 02:02:13 78° NE 02:07:34 10° N
Cosmos 841 Rocket 3.7 02:06:18 10° NNW 02:11:28 64° ENE 02:11:28 64° ENE
NOSS 3-3 (A) 4.3 02:06:11 10° NW 02:13:40 76° WSW 02:15:02 62° S
NOSS 3-3 (C) 4.3 02:06:18 10° NW 02:13:48 77° WSW 02:15:12 62° S
Lacrosse 5 4.1 02:11:09 10° NNW 02:15:14 24° NNE 02:19:18 10° E
NOSS 3-2 (C) 3.8 02:19:35 49° W 02:20:49 58° NW 02:27:25 10° NNE
Cosmos 883 Rocket 4.3 02:15:24 10° N 02:21:46 80° W 02:22:13 75° SW
Nadezhda 2 Rocket 4.4 02:21:37 72° SSE 02:22:15 80° E 02:28:35 10° N
Cosmos 2278 3.9 02:17:17 10° NNW 02:22:14 59° WNW 02:22:14 59° WNW
CENTAUR R/B 3.2 02:24:16 38° ESE 02:24:25 38° ESE 02:30:29 10° NE
Cosmos 1437 Rocket 4.2 02:22:24 10° N 02:25:05 36° NNE 02:25:05 36° NNE
Cosmos 1980 Rocket 3.8 02:22:29 10° N 02:27:24 30° ENE 02:31:05 16° ESE
Cosmos 1441 Rocket 4.4 02:38:35 42° N 02:38:35 42° N 02:41:19 10° N
Cosmos 1300 4.4 02:35:49 10° NNE 02:38:46 28° ENE 02:38:46 28° ENE
ERS-2 4.1 02:39:56 10° NE 02:42:12 24° ENE 02:42:12 24° ENE
Cosmos 836 Rocket 4.4 02:37:59 10° NNW 02:43:01 83° NW 02:43:01 83° NW
Cosmos 2082 Rocket 2.1 02:43:09 70° W 02:43:28 71° WNW 02:49:09 10° NNE
Cosmos 1818 4.2 02:38:55 10° NW 02:43:01 43° WNW 02:43:01 43° WNW
Cosmos 2315 Rocket 3.9 02:38:30 10° N 02:44:49 74° W 02:45:31 67° SW
Cosmos 1707 Rocket 4.4 02:41:10 10° N 02:45:14 45° ENE 02:45:14 45° ENE
Cosmos 1666 Rocket 4.5 02:47:42 41° E 02:47:42 41° E 02:51:27 10° NNE
Aureole 1 Rocket 3.8 02:43:51 10° N 02:48:22 62° ENE 02:49:24 51° ESE
Cosmos 1697 Rocket 2.8 02:43:27 10° NNW 02:49:08 72° ENE 02:50:19 55° SE
CZ-4C R/B 3.7 02:53:07 23° WNW 02:55:15 29° NW 03:00:30 10° NNE
Cosmos 1833 Rocket 2.6 02:56:30 67° WSW 02:57:00 72° WNW 03:02:40 10° NNE
ASTEX 1 3.4 02:52:41 10° N 02:57:30 67° WNW 02:57:30 67° WNW
Cosmos 1745 Rocket 4.3 02:57:59 46° SSE 02:59:43 62° E 03:05:59 10° NNE
Cosmos 1151 Rocket 4.4 03:02:09 10° NNW 03:04:47 29° NW 03:04:47 29° NW
Meteor 1-27 4.4 03:00:38 10° N 03:06:29 72° E 03:08:08 48° SSE
Nadezhda 1 Rocket 4.3 03:02:50 10° N 03:08:56 59° E 03:11:30 34° SE
Cosmos 1674 4.5 03:12:37 23° NW 03:12:37 23° NW 03:14:43 10° NNW
SL-14 R/B 3.7 03:14:51 58° NE 03:14:51 58° NE 03:18:08 10° NNE
H-2A R/B 3.0 03:15:26 39° SSE 03:15:26 39° SSE 03:28:01 10° E
ISS 0.1 03:14:16 10° NNW 03:15:33 12° N 03:16:51 10° NNE
Cosmos 2151 4.0 03:16:27 35° WNW 03:16:27 35° WNW 03:19:48 10° N
Cosmos 2058 3.3 03:19:43 54° NW 03:19:43 54° NW 03:23:22 10° N
PSLV R/B 3.9 03:15:01 10° N 03:19:33 58° WNW 03:19:33 58° WNW
CZ-2C R/B 4.4 03:20:27 27° W 03:20:27 27° W 03:24:43 10° NW
Cosmos 1726 2.6 03:16:37 10° N 03:19:43 57° NNE 03:19:43 57° NNE
Sich 1 2.9 03:23:35 85° W 03:23:35 85° W 03:28:02 10° N
Cosmos 540 Rocket 3.3 03:20:26 10° NNW 03:25:36 75° WSW 03:26:15 65° SSW
SL-16 R/B 3.8 03:21:10 10° N 03:26:18 34° ENE 03:31:24 10° ESE
Cosmos 1703 3.7 03:27:21 55° ESE 03:27:29 55° E 03:31:22 10° NNE
Cosmos 1656 4.3 03:24:08 10° NW 03:29:07 39° W 03:29:07 39° W
USA 215 3.4 03:25:46 10° NE 03:32:16 70° NW 03:35:15 34° WSW
IRS-P3 4.1 03:32:11 10° N 03:37:30 68° WNW 03:38:43 51° SW
SL-08 R/B 3.2 03:37:04 56° S 03:38:07 84° WSW 03:43:02 10° NNW
Cosmos 332 Rocket 3.6 03:33:45 10° NNW 03:38:34 80° WSW 03:39:28 58° S
Cosmos 1626 3.4 03:37:58 30° ESE 03:38:42 33° E 03:42:07 10° NNE
Lacrosse 5 rocket 3.7 03:35:50 10° NNW 03:39:34 27° NE 03:43:24 10° E
Cosmos 2322 Rocket 3.1 03:34:52 10° NNW 03:40:17 46° ENE 03:45:39 10° SE
Resurs 1-4 Rocket 3.8 03:39:21 10° NE 03:43:51 27° E 03:47:33 13° SSE
Cosmos 1271 Rocket 3.4 03:41:46 10° N 03:45:28 49° ENE 03:46:34 36° SE
SEDSat Delta rocket 4.5 03:47:11 38° SSW 03:48:04 40° S 03:54:12 10° ESE
OAO 3 Rocket 3.6 03:56:42 40° SSE 03:56:42 40° SSE 04:01:03 10° E
Lacrosse 5 1.7 03:53:36 10° NW 03:58:39 76° SW 04:03:41 10° SE
Cosmos 2242 Rocket 3.9 03:54:53 10° NNW 03:59:05 43° W 03:59:19 43° WSW
Cosmos 968 Rocket 3.5 03:58:51 43° SW 04:00:24 66° WNW 04:05:32 10° NNE
Cosmos 2181 Rocket 4.2 03:56:01 10° N 04:02:10 69° E 04:07:43 13° SSE
Spot 4 Rocket 3.9 04:03:57 10° NNE 04:09:07 84° WNW 04:11:28 33° SSW
Cosmos 1980 Rocket 2.7 04:06:16 10° NW 04:11:26 38° WSW 04:12:46 33° SW
Cosmos 2360 Rocket 4.1 04:07:13 10° N 04:12:13 31° ENE 04:17:10 10° ESE
Cosmos 1538 Rocket 4.1 04:07:30 10° NNW 04:12:36 56° WSW 04:15:04 29° S
deb Kosmos-1763 4.3 04:13:20 48° WSW 04:14:06 60° WNW 04:17:55 10° NNE
CENTAUR R/B 3.4 04:11:26 22° WSW 04:14:59 40° NW 04:21:28 10° NNE
Cosmos 923 Rocket 4.3 04:11:00 10° NNW 04:16:16 70° ENE 04:21:28 10° SSE
ERS-2 4.0 04:14:11 10° NNW 04:16:46 18° WNW 04:17:04 18° WNW
CZ-2D R/B 2.4 04:18:43 10° NNE 04:23:56 63° ESE 04:27:57 17° S
Cosmos 1680 Rocket 3.9 04:21:17 10° NNW 04:26:28 66° ENE 04:31:38 10° SSE
SL-16 R/B 2.6 04:21:50 10° SSE 04:28:05 86° ENE 04:34:24 10° NNW
Cosmos 2082 Rocket 4.4 04:26:42 10° WNW 04:28:37 12° NW 04:30:33 10° NNW
Cosmos 1777 Rocket 4.2 04:27:18 29° SW 04:29:56 59° WNW 04:35:11 10° NNE
Cosmos 371 Rocket 3.9 04:26:35 10° NW 04:31:00 36° WSW 04:32:38 28° SW
H-2A ROCKET BODY 3.0 04:33:12 20° S 04:33:12 20° S 04:34:55 10° SSE
Cosmos 1697 Rocket 4.4 04:29:24 10° WNW 04:31:59 15° W 04:31:59 15° W
Cosmos 1703 Rocket 3.8 04:28:29 10° N 04:32:51 69° E 04:37:09 10° SSE
ADEOS 4.2 04:28:37 10° N 04:33:30 41° WNW 04:36:06 24° WSW
Cosmos 1346 3.0 04:35:20 36° S 04:36:27 88° ESE 04:39:32 10° N
Cosmos 2074 Rocket 4.2 04:30:37 11° S 04:36:36 70° E 04:42:50 10° NNE
Cosmos 2184 Rocket 4.3 04:32:59 10° S 04:39:18 71° E 04:45:38 10° NNE
Cosmos 773 Rocket 4.0 04:35:00 10° NNW 04:40:01 56° WSW 04:45:02 10° S
IRS-1D 3.6 04:35:07 10° N 04:40:27 72° WNW 04:44:11 20° SSW
CZ-2D R/B 4.3 04:36:41 10° NNE 04:40:44 46° E 04:44:34 11° S
Cosmos 1455 3.0 04:39:02 10° NNW 04:42:28 33° W 04:43:34 27° SW
ARIANE 5 R/B 2.6 04:37:30 10° N 04:42:32 59° WNW 04:45:48 21° SW
USA 161 3.7 04:45:54 10° WNW 04:45:54 10° WNW 04:46:00 10° WNW
Meteor 1-4 Rocket 3.9 04:44:29 10° NW 04:47:33 24° W 04:48:18 23° WSW
FALCON 9 R/B 1.5 04:48:00 23° SSE 04:48:00 23° SSE 04:49:45 10° ESE
ATLAS CENTAUR R/B 4.5 04:44:55 10° N 04:48:31 21° NE 04:51:57 10° E
Cosmos 2292 Rocket 3.7 04:48:35 27° WSW 04:49:23 31° WNW 04:52:22 10° NNW
Cosmos 304 Rocket 3.7 04:45:11 10° NNW 04:50:03 89° W 04:54:52 10° SSE
Cosmos 2327 Rocket 4.5 04:44:13 11° S 04:50:07 88° E 04:56:21 10° N
Cosmos 1869 4.1 04:46:58 10° NNW 04:50:33 33° W 04:52:19 22° SW
Cosmos 1833 4.3 04:46:40 16° SSW 04:51:18 83° ESE 04:57:05 10° NNE
UNKNOWN OBJECT B 2.7 04:48:16 10° NNE 04:52:05 88° WNW 04:55:05 16° SSW
ISS -1.3 04:49:48 10° NW 04:52:47 32° NNE 04:55:45 10° E
ATLAS 5 CENTAUR R/B 1.9 04:50:28 20° SSW 04:53:54 87° ESE 04:59:07 10° NE
MTI 4.0 04:53:55 16° S 04:56:27 54° W 04:59:46 10° NNW
Cosmos 1898 Rocket 4.3 04:52:06 10° S 04:57:05 50° ESE 05:02:05 10° NNE
GPS 2-05 Rocket1 3.7 04:58:55 22° SW 05:00:24 32° SSE 05:03:32 10° ESE
CZ-4B R/B 4.2 04:58:54 10° NNE 05:02:39 38° E 05:06:34 10° SSE
Okean O Rocket 1.8 04:58:58 10° NNE 05:03:25 73° ESE 05:07:48 10° S
Cosmos 2150 Rocket 4.4 05:00:51 10° S 05:06:02 65° ESE 05:11:21 10° NNE
Meteor 2-3 Rocket 4.1 05:01:49 10° S 05:07:31 68° E 05:13:17 10° NNE
Okean 1-7 3.0 05:04:19 10° N 05:08:43 77° W 05:13:04 10° S
SL-16 R/B 2.9 05:05:18 10° NW 05:10:20 33° WSW 05:15:21 10° SSW
Cosmos 1933 3.9 05:07:55 10° NNW 05:11:39 38° W 05:15:22 10° SSW
Cosmos 1626 4.2 05:12:42 11° W 05:14:15 14° WNW 05:16:17 10° NW
SL-24 DEB 4.2 05:14:15 10° N 05:18:55 76° W 05:23:31 10° SSW
CZ-2C R/B 3.6 05:14:33 10° S 05:18:59 67° WSW 05:23:31 10° NNW
Lacrosse 5 rocket 1.7 05:14:44 10° NW 05:19:03 51° SW 05:23:29 10° SSE
PSLV R/B 3.8 05:15:36 10° N 05:19:31 75° WNW 05:23:30 10° SSW
Cosmos 2112 Rocket 4.3 05:15:14 10° NNW 05:20:10 46° WSW 05:25:06 10° S
Resurs 1-4 Rocket 2.9 05:18:54 10° N 05:23:43 36° WNW 05:28:32 10° SW
Cosmos 2322 Rocket 3.3 05:19:38 10° NW 05:23:58 23° W 05:28:17 10° SSW
Cosmos 2221 Rocket 4.4 05:20:17 10° NNW 05:24:17 32° W 05:28:17 10° SSW
Okean-O 3.8 05:21:57 10° NNE 05:26:12 43° E 05:30:25 10° S
SME Rocket 4.2 05:23:52 10° S 05:31:09 53° WSW 05:36:02 10° NNW
Cosmos 2219 Rocket 4.1 05:31:05 10° N 05:36:12 35° ENE 05:41:17 10° SE
BREEZE-M DEB (TANK) 3.2 05:27:41 10° SW 05:38:11 85° SSE 05:41:25 10° ENE
OAO 3 Rocket 3.5 05:35:20 10° WSW 05:39:49 46° S 05:44:21 10° ESE
Lacrosse 5 3.7 05:40:06 10° WSW 05:40:47 10° WSW 05:41:29 10° WSW
Cosmos 2341 Rocket 4.1 05:40:24 10° S 05:46:41 86° W 05:53:04 10° N
Cosmos 2298 Rocket 4.5 05:41:45 10° SW 05:46:52 47° WNW 05:52:01 10° N
